CW5398 Weather Reports


Display with metric or nautical units.
time (UTC)temp
F
wind
direction
speed
MPH
gust
MPH
rain 1hr
in
rain 24hr
in
rain mn
in
humidity
%
barometer
mb
20260906010515 64 225 1.0 3.0 0.00 0.00 0.00 65 1016.5
20260906005515 66 225 0.0 3.0 0.00 0.00 0.00 63 1016.3
20260906004517 67 225 1.0 5.0 0.00 0.00 0.00 61 1016.3
20260906003517 68 225 0.0 4.0 0.00 0.00 0.00 58 1016.1
20260906002517 69 225 0.0 2.0 0.00 0.00 0.00 55 1016.0
20260906001517 69 225 1.0 5.0 0.00 0.00 0.00 57 1016.0
20260906000517 68 225 0.0 1.0 0.00 0.00 0.00 57 1016.0
20260905235517 69 225 1.0 4.0 0.00 0.00 0.00 56 1016.0
20260905234517 68 225 0.0 1.0 0.00 0.00 0.00 57 1016.0
20260905233517 68 225 0.0 3.0 0.00 0.00 0.00 58 1016.0
20260905232517 68 225 0.0 4.0 0.00 0.00 0.00 57 1016.0
20260905231517 68 225 2.0 5.0 0.00 0.00 0.00 58 1016.0
20260905230517 69 225 0.0 3.0 0.00 0.00 0.00 57 1016.0
20260905225517 69 225 0.0 3.0 0.00 0.00 0.00 58 1016.2
20260905224517 69 225 1.0 6.0 0.00 0.00 0.00 57 1016.1
20260905223517 69 248 1.0 5.0 0.00 0.00 0.00 58 1016.4
20260905222517 69 225 1.0 4.0 0.00 0.00 0.00 58 1016.5
20260905221537 69 225 2.0 6.0 0.00 0.00 0.00 58 1016.5
20260905220517 69 225 1.0 5.0 0.00 0.00 0.00 58 1016.5
20260905215517 68 225 1.0 5.0 0.00 0.00 0.00 61 1016.7
20260905214522 68 225 3.0 6.0 0.00 0.00 0.00 61 1016.7
20260905213516 68 180 3.0 10.0 0.00 0.00 0.00 64 1016.9
20260905212537 68 203 1.0 5.0 0.00 0.00 0.00 65 1016.9
20260905211516 68 180 4.0 10.0 0.00 0.00 0.00 64 1016.9
20260905210537 68 203 4.0 7.0 0.00 0.00 0.00 64 1016.9
20260905205516 68 180 4.0 9.0 0.00 0.00 0.00 64 1017.0
20260905204517 68 158 3.0 9.0 0.00 0.00 0.00 62 1017.0
20260905203516 68 225 2.0 8.0 0.00 0.00 0.00 61 1017.0
20260905202516 67 248 2.0 8.0 0.00 0.00 0.00 63 1016.9
20260905201517 66 203 1.0 4.0 0.00 0.00 0.00 65 1016.9
20260905200517 66 203 1.0 5.0 0.00 0.00 0.00 65 1017.0
20260905195536 66 203 1.0 6.0 0.00 0.00 0.00 65 1017.1
20260905194517 66 203 2.0 7.0 0.00 0.00 0.00 65 1017.1
20260905193516 66 225 1.0 7.0 0.00 0.00 0.00 66 1017.1
20260905192516 66 225 3.0 7.0 0.00 0.00 0.00 64 1017.2
20260905191537 66 270 0.0 4.0 0.00 0.00 0.00 66 1017.2
20260905190517 65 270 2.0 5.0 0.00 0.00 0.00 67 1017.3
20260905185537 65 270 2.0 6.0 0.00 0.00 0.00 68 1017.3
20260905184516 64 293 1.0 6.0 0.00 0.00 0.00 70 1017.3
20260905183516 64 293 0.0 3.0 0.00 0.00 0.00 70 1017.4
20260905182516 64 293 1.0 5.0 0.00 0.00 0.00 70 1017.6
20260905181516 63 293 0.0 3.0 0.00 0.00 0.00 70 1017.6
20260905180516 63 315 1.0 6.0 0.00 0.00 0.00 71 1017.6
20260905175516 62 315 1.0 4.0 0.00 0.00 0.00 72 1017.6
20260905174517 62 315 1.0 4.0 0.00 0.00 0.00 73 1017.6
20260905173516 62 315 0.0 1.0 0.00 0.00 0.00 74 1017.6
20260905172516 62 315 1.0 4.0 0.00 0.00 0.00 74 1017.6
20260905171516 62 315 1.0 4.0 0.00 0.00 0.00 78 1017.6
20260905170516 60 315 0.0 4.0 0.00 0.00 0.00 81 1017.6
20260905165516 59 315 0.0 2.0 0.00 0.00 0.00 84 1017.6
20260905164516 58 315 0.0 2.0 0.00 0.00 0.00 87 1017.5
20260905163516 56 304 0.0 0.0 0.00 0.00 0.00 91 1017.4
20260905162516 55 304 0.0 0.0 0.00 0.00 0.00 93 1017.4
20260905161516 54 315 0.0 1.0 0.00 0.00 0.00 95 1017.4
20260905160536 53 304 0.0 1.0 0.00 0.00 0.00 95 1017.4
20260905155516 53 304 0.0 0.0 0.00 0.00 0.00 96 1017.5
20260905154516 52 304 0.0 0.0 0.00 0.00 0.00 96 1017.5
20260905153516 52 304 0.0 0.0 0.00 0.00 0.00 96 1017.5
20260905152516 51 304 0.0 0.0 0.00 0.00 0.00 95 1017.5
20260905151516 51 304 0.0 0.0 0.00 0.00 0.00 95 1017.5
20260905150516 51 304 0.0 0.0 0.00 0.01 0.00 95 1017.5
20260905145516 51 304 0.0 0.0 0.00 0.01 0.00 95 1017.3
20260905144516 51 304 0.0 0.0 0.00 0.01 0.00 95 1017.2
20260905143516 50 304 0.0 0.0 0.00 0.01 0.00 95 1017.0
20260905142516 50 304 0.0 0.0 0.00 0.01 0.00 95 1017.0
20260905141516 50 304 0.0 0.0 0.00 0.01 0.00 95 1017.0
20260905140516 50 304 0.0 0.0 0.00 0.01 0.00 95 1017.0
20260905135516 50 304 0.0 0.0 0.00 0.01 0.00 95 1017.0
20260905134515 50 304 0.0 0.0 0.00 0.01 0.00 95 1017.0
20260905133516 50 304 0.0 0.0 0.00 0.01 0.00 95 1017.0
20260905132515 49 304 0.0 0.0 0.00 0.01 0.00 95 1017.0
20260905131556 49 304 0.0 0.0 0.00 0.01 0.00 95 1017.0
20260905130516 49 304 0.0 0.0 0.00 0.01 0.00 95 1016.9
20260905125516 49 304 0.0 0.0 0.00 0.01 0.00 95 1016.8
20260905124516 49 304 0.0 0.0 0.00 0.01 0.00 95 1016.8
20260905123515 49 304 0.0 0.0 0.00 0.01 0.00 95 1016.6
20260905122555 49 304 0.0 0.0 0.00 0.01 0.00 94 1016.5
20260905121516 49 304 0.0 0.0 0.00 0.01 0.00 94 1016.5
20260905120535 49 304 0.0 0.0 0.00 0.01 0.00 94 1016.5
20260905115516 49 304 0.0 0.0 0.00 0.01 0.00 94 1016.5
20260905114535 49 304 0.0 0.0 0.00 0.01 0.00 94 1016.5
20260905113536 49 304 0.0 0.0 0.00 0.01 0.00 93 1016.5
20260905112515 49 304 0.0 0.0 0.00 0.01 0.00 93 1016.5
20260905111515 49 304 0.0 0.0 0.00 0.01 0.00 93 1016.5
20260905110516 49 304 0.0 0.0 0.00 0.01 0.00 93 1016.5
20260905105515 49 304 0.0 0.0 0.00 0.01 0.00 93 1016.5
20260905104515 49 304 0.0 0.0 0.00 0.01 0.00 92 1016.5
20260905103515 49 304 0.0 0.0 0.00 0.01 0.00 92 1016.5
20260905102515 49 304 0.0 0.0 0.00 0.01 0.00 92 1016.5
20260905101555 50 304 0.0 0.0 0.00 0.01 0.00 92 1016.5
20260905100535 50 304 0.0 0.0 0.00 0.01 0.00 92 1016.5
20260905095517 50 304 0.0 0.0 0.00 0.01 0.00 92 1016.5
20260905094517 50 304 0.0 0.0 0.00 0.01 0.00 91 1016.5
20260905093537 50 304 0.0 0.0 0.00 0.01 0.00 91 1016.6
20260905092558 51 304 0.0 0.0 0.00 0.01 0.00 90 1016.4
20260905091517 51 304 0.0 0.0 0.00 0.01 0.00 90 1016.4
20260905090517 51 304 0.0 0.0 0.00 0.01 0.00 90 1016.4
20260905085537 52 304 0.0 0.0 0.00 0.01 0.00 90 1016.3
20260905084517 52 304 0.0 0.0 0.00 0.01 0.00 90 1016.3
20260905082517 52 304 0.0 0.0 0.00 0.01 0.00 89 1016.2
20260905081517 52 304 0.0 0.0 0.00 0.01 0.00 89 1016.2
20260905080517 52 304 0.0 0.0 0.00 0.01 0.00 89 1016.2
20260905075517 52 304 0.0 0.0 0.00 0.01 0.00 88 1016.1
20260905074517 52 304 0.0 0.0 0.00 0.01 0.00 88 1016.1
20260905073537 52 304 0.0 0.0 0.00 0.01 0.00 87 1016.1
20260905072517 53 304 0.0 0.0 0.00 0.01 0.00 87 1016.0
20260905071517 53 304 0.0 0.0 0.00 0.01 0.00 86 1016.0
20260905070537 53 304 0.0 0.0 0.00 0.01 0.00 87 1016.0
20260905065516 53 304 0.0 0.0 0.00 0.01 0.01 87 1015.8
20260905064517 53 304 0.0 0.0 0.00 0.01 0.01 86 1015.8
20260905063517 53 304 0.0 0.0 0.00 0.01 0.01 86 1015.5
20260905062516 53 304 0.0 0.0 0.00 0.01 0.01 86 1015.5
20260905061517 53 304 0.0 0.0 0.00 0.01 0.01 85 1015.5
20260905060536 53 304 0.0 0.0 0.00 0.01 0.01 85 1015.6
20260905055516 53 304 0.0 0.0 0.00 0.01 0.01 85 1015.6
20260905054536 53 304 0.0 0.0 0.00 0.01 0.01 84 1015.6
20260905053516 54 304 0.0 0.0 0.00 0.01 0.01 84 1015.5
20260905052516 54 304 0.0 0.0 0.00 0.01 0.01 84 1015.5
20260905051536 54 304 0.0 0.0 0.00 0.01 0.01 84 1015.5
20260905050516 54 304 0.0 0.0 0.00 0.01 0.01 84 1015.7
20260905045516 54 304 0.0 0.0 0.00 0.01 0.01 83 1015.8
20260905044516 54 304 0.0 0.0 0.00 0.01 0.01 83 1015.8
20260905043517 55 304 0.0 0.0 0.00 0.01 0.01 82 1015.9
20260905042516 55 304 0.0 0.0 0.00 0.01 0.01 81 1015.7
20260905041516 56 304 0.0 0.0 0.00 0.01 0.01 81 1015.7
20260905040516 56 304 0.0 0.0 0.00 0.01 0.01 81 1015.5
20260905035516 57 304 0.0 0.0 0.00 0.01 0.01 80 1015.4
20260905034536 57 304 0.0 0.0 0.00 0.01 0.01 78 1015.4
20260905033517 58 304 0.0 0.0 0.00 0.01 0.01 78 1015.3
20260905032516 58 304 0.0 0.0 0.00 0.01 0.01 77 1015.2
20260905031516 59 304 0.0 0.0 0.00 0.01 0.01 77 1015.2
20260905030516 59 304 0.0 0.0 0.00 0.01 0.01 76 1015.1
20260905025536 60 304 0.0 0.0 0.00 0.01 0.01 74 1014.9
20260905024516 61 304 0.0 0.0 0.00 0.01 0.01 73 1014.9
20260905023516 61 304 0.0 0.0 0.00 0.01 0.01 72 1014.9
20260905022516 62 304 0.0 0.0 0.00 0.01 0.01 70 1014.9
20260905021536 62 304 0.0 0.0 0.00 0.01 0.01 70 1014.9
20260905020516 62 304 0.0 0.0 0.00 0.01 0.01 69 1014.9
20260905015536 62 304 0.0 0.0 0.00 0.01 0.01 69 1014.9
20260905014516 62 304 0.0 0.0 0.00 0.01 0.01 69 1014.9
20260905013516 62 304 0.0 0.0 0.00 0.01 0.01 68 1014.9
20260905012516 62 304 0.0 0.0 0.00 0.01 0.01 69 1014.7
20260905011516 62 315 0.0 3.0 0.00 0.01 0.01 70 1014.7